RLH5039 ZPPP-RKTU

Flight info

Callsign RLH5039
Flight time 3h 24m
Altitude 35100
Route NODIB1Y NODIB W137 LPS A581 WHA R343 HFE W163 VEMEX W73 MABOS/K0867S1100 W543 AKSIG/K0863S1130 W543 OF W185 YCH W113 IKADI/K0865S1100 A326 OMLIB/K0856S1130 W209 AGAVO/N0460F370 Y644 MONSI W61 SOT A582 OSPOT MATIZ1
Aircraft B738/M-SDE2E3FGHIRWXY/LB1

Departure

Time 2026-05-01 07:50
Airport Kunming Changshui International Airport (ZPPP)

Arrival

Time 2026-05-01 11:14
Airport Cheongju International Airport/Cheongju Air Base (K-59/G-513) (RKTU)
Time Latitude Longitude Altitude Speed Heading
2026-05-01 07:30 25.09891 102.93011 6897 ft 0 kts 217°
2026-05-01 07:40 25.09898 102.93016 6897 ft 4 kts 216°
2026-05-01 07:40 25.09920 102.93033 6897 ft 4 kts 212°
2026-05-01 07:41 25.09944 102.93048 6897 ft 4 kts 203°
2026-05-01 07:41 25.09968 102.93054 6897 ft 4 kts 170°
2026-05-01 07:41 25.09981 102.93049 6897 ft 0 kts 134°
2026-05-01 07:43 25.09973 102.93058 6897 ft 5 kts 134°
2026-05-01 07:44 25.09868 102.93199 6896 ft 18 kts 128°
2026-05-01 07:44 25.09709 102.93465 6894 ft 17 kts 68°
2026-05-01 07:45 25.09798 102.93551 6894 ft 18 kts 38°
2026-05-01 07:45 25.09914 102.93651 6893 ft 23 kts 37°
2026-05-01 07:45 25.10050 102.93769 6893 ft 26 kts 38°
2026-05-01 07:45 25.10186 102.93886 6892 ft 24 kts 38°
2026-05-01 07:46 25.10313 102.93997 6892 ft 23 kts 38°
2026-05-01 07:46 25.10435 102.94104 6892 ft 22 kts 38°
2026-05-01 07:46 25.10669 102.94309 6891 ft 21 kts 38°
2026-05-01 07:47 25.10780 102.94405 6891 ft 20 kts 38°
2026-05-01 07:47 25.10889 102.94500 6890 ft 20 kts 38°
2026-05-01 07:47 25.10995 102.94591 6890 ft 19 kts 38°
2026-05-01 07:47 25.11096 102.94681 6890 ft 18 kts 38°
2026-05-01 07:48 25.11289 102.94850 6890 ft 18 kts 39°
2026-05-01 07:48 25.11409 102.94956 6889 ft 27 kts 38°
2026-05-01 07:48 25.11580 102.95102 6888 ft 34 kts 38°
2026-05-01 07:49 25.11765 102.95260 6887 ft 33 kts 38°
2026-05-01 07:49 25.11800 102.95492 6887 ft 17 kts 158°
2026-05-01 07:49 25.11688 102.95436 6887 ft 30 kts 219°
2026-05-01 07:50 25.11352 102.95144 6889 ft 91 kts 218°
2026-05-01 07:50 25.09830 102.93821 7052 ft 171 kts 218°
2026-05-01 07:50 25.08894 102.93018 7811 ft 176 kts 218°
2026-05-01 07:51 25.07950 102.92242 8579 ft 163 kts 218°
2026-05-01 07:51 25.06973 102.91511 8950 ft 182 kts 212°
2026-05-01 07:51 25.05645 102.91257 9101 ft 212 kts 180°
2026-05-01 07:52 25.03008 102.93450 9378 ft 283 kts 118°
2026-05-01 07:52 25.02564 102.95665 9538 ft 314 kts 90°
2026-05-01 07:52 25.02763 102.98104 10180 ft 324 kts 84°
2026-05-01 07:53 25.03361 103.03309 10596 ft 365 kts 85°
2026-05-01 07:53 25.03656 103.06161 10710 ft 384 kts 85°
2026-05-01 07:53 25.03926 103.09167 10824 ft 404 kts 86°
2026-05-01 07:53 25.04165 103.12311 11099 ft 417 kts 87°
2026-05-01 07:54 25.04648 103.18769 12135 ft 424 kts 85°
2026-05-01 07:55 25.09249 103.26814 13604 ft 432 kts 33°
2026-05-01 07:55 25.14246 103.30586 14422 ft 439 kts 31°
2026-05-01 07:56 25.21893 103.36337 15771 ft 446 kts 32°
2026-05-01 07:56 25.27027 103.40279 16573 ft 453 kts 32°
2026-05-01 07:57 25.29590 103.42257 16921 ft 457 kts 32°
2026-05-01 07:57 25.34829 103.46305 17767 ft 462 kts 32°
2026-05-01 07:58 25.40120 103.50396 18474 ft 467 kts 32°
2026-05-01 07:58 25.45488 103.54549 19062 ft 474 kts 32°
2026-05-01 07:59 25.50867 103.58714 19744 ft 477 kts 32°
2026-05-01 07:59 25.55446 103.64054 20324 ft 487 kts 57°
2026-05-01 08:00 25.62717 103.76933 21395 ft 498 kts 56°
2026-05-01 08:01 25.68339 103.86637 22179 ft 504 kts 56°
2026-05-01 08:01 25.70238 103.89913 22431 ft 506 kts 56°
2026-05-01 08:01 25.72144 103.93204 22675 ft 508 kts 56°
2026-05-01 08:02 25.75971 103.99830 23160 ft 511 kts 56°
2026-05-01 08:02 25.77888 104.03154 23397 ft 513 kts 56°
2026-05-01 08:03 25.81727 104.09778 23795 ft 514 kts 56°
2026-05-01 08:03 25.83682 104.13100 24030 ft 514 kts 56°
2026-05-01 08:03 25.87608 104.19745 24456 ft 515 kts 55°
2026-05-01 08:04 25.91531 104.26413 24857 ft 516 kts 55°
2026-05-01 08:04 25.95456 104.33112 25200 ft 518 kts 55°
2026-05-01 08:05 25.99368 104.39795 25497 ft 521 kts 55°
2026-05-01 08:05 26.01362 104.43164 25620 ft 522 kts 53°
2026-05-01 08:05 26.03624 104.46312 25749 ft 520 kts 45°
2026-05-01 08:06 26.09043 104.51587 26087 ft 517 kts 36°
2026-05-01 08:06 26.14645 104.56638 26403 ft 520 kts 36°
2026-05-01 08:07 26.20231 104.61764 26749 ft 520 kts 37°
2026-05-01 08:07 26.25694 104.66853 27533 ft 509 kts 37°
2026-05-01 08:08 26.28410 104.69390 27711 ft 510 kts 37°
2026-05-01 08:08 26.33883 104.74498 27852 ft 515 kts 37°
2026-05-01 08:09 26.39366 104.79622 28394 ft 512 kts 37°
2026-05-01 08:09 26.42090 104.82170 28705 ft 510 kts 37°
2026-05-01 08:09 26.44771 104.84678 28956 ft 510 kts 37°
2026-05-01 08:10 26.50206 104.89768 29428 ft 509 kts 37°
2026-05-01 08:10 26.55612 104.94838 30022 ft 506 kts 37°
2026-05-01 08:11 26.60982 104.99902 30450 ft 506 kts 39°
2026-05-01 08:11 26.65475 105.05961 30847 ft 514 kts 56°
2026-05-01 08:12 26.68578 105.13158 31355 ft 514 kts 64°
2026-05-01 08:12 26.69998 105.16825 31569 ft 514 kts 65°
2026-05-01 08:12 26.72845 105.24155 32060 ft 513 kts 64°
2026-05-01 08:13 26.74284 105.27794 32341 ft 511 kts 64°
2026-05-01 08:13 26.75729 105.31420 32593 ft 510 kts 63°
2026-05-01 08:13 26.78617 105.38616 33058 ft 509 kts 63°
2026-05-01 08:14 26.80066 105.42228 33319 ft 509 kts 63°
2026-05-01 08:14 26.81514 105.45841 33558 ft 509 kts 63°
2026-05-01 08:14 26.82962 105.49459 33811 ft 508 kts 63°
2026-05-01 08:14 26.84402 105.53068 34063 ft 507 kts 63°
2026-05-01 08:15 26.85837 105.56666 34302 ft 506 kts 63°
2026-05-01 08:15 26.88702 105.63861 34648 ft 506 kts 63°
2026-05-01 08:15 26.90118 105.67420 34788 ft 508 kts 64°
2026-05-01 08:16 26.91553 105.71030 34836 ft 507 kts 64°
2026-05-01 08:16 26.94410 105.78229 34868 ft 506 kts 64°
2026-05-01 08:17 26.97274 105.85459 34874 ft 509 kts 64°
2026-05-01 08:17 27.00150 105.92731 34876 ft 511 kts 64°
2026-05-01 08:18 27.03015 105.99990 34884 ft 514 kts 64°
2026-05-01 08:19 27.09328 106.14369 34871 ft 514 kts 60°
2026-05-01 08:19 27.12632 106.21489 34867 ft 514 kts 61°
2026-05-01 08:20 27.15862 106.28583 34877 ft 514 kts 61°
2026-05-01 08:20 27.19101 106.35735 34863 ft 514 kts 61°
2026-05-01 08:21 27.22346 106.42881 34869 ft 513 kts 61°
2026-05-01 08:21 27.25592 106.50017 34870 ft 512 kts 61°
2026-05-01 08:22 27.28807 106.57101 34873 ft 511 kts 61°
2026-05-01 08:22 27.32022 106.64201 34898 ft 509 kts 61°
2026-05-01 08:23 27.35236 106.71310 34886 ft 510 kts 61°
2026-05-01 08:23 27.38446 106.78433 34881 ft 511 kts 62°
2026-05-01 08:24 27.41624 106.85534 34876 ft 512 kts 62°
2026-05-01 08:24 27.44820 106.92693 34878 ft 512 kts 62°
2026-05-01 08:25 27.48023 106.99865 34878 ft 513 kts 62°
2026-05-01 08:25 27.51275 107.07036 34880 ft 515 kts 62°
2026-05-01 08:26 27.54524 107.14176 34881 ft 517 kts 62°
2026-05-01 08:26 27.57792 107.21397 34877 ft 518 kts 62°
2026-05-01 08:27 27.61057 107.28644 34873 ft 519 kts 62°
2026-05-01 08:27 27.64318 107.35906 34884 ft 520 kts 62°
2026-05-01 08:28 27.67029 107.41955 34877 ft 520 kts 62°
2026-05-01 08:28 27.70818 107.50417 34882 ft 520 kts 62°
2026-05-01 08:29 27.73524 107.56472 34880 ft 520 kts 63°
2026-05-01 08:29 27.77319 107.64979 34874 ft 519 kts 62°
2026-05-01 08:30 27.80537 107.72206 34873 ft 518 kts 62°
2026-05-01 08:30 27.83774 107.79471 34877 ft 517 kts 62°
2026-05-01 08:31 27.86506 107.85470 34868 ft 516 kts 62°
2026-05-01 08:31 27.89814 107.92672 34878 ft 516 kts 62°
2026-05-01 08:32 27.93106 107.99870 34886 ft 515 kts 62°
2026-05-01 08:32 27.96387 108.07080 34882 ft 516 kts 62°
2026-05-01 08:33 27.99647 108.14261 34890 ft 516 kts 62°
2026-05-01 08:33 28.02928 108.21504 34873 ft 518 kts 62°
2026-05-01 08:34 28.06211 108.28760 34886 ft 518 kts 62°
2026-05-01 08:34 28.10032 108.37223 34898 ft 520 kts 62°
2026-05-01 08:35 28.12770 108.43297 34884 ft 521 kts 62°
2026-05-01 08:35 28.16059 108.50606 34896 ft 521 kts 62°
2026-05-01 08:36 28.19346 108.57923 34896 ft 520 kts 62°
2026-05-01 08:36 28.22623 108.65233 34898 ft 520 kts 62°
2026-05-01 08:37 28.25873 108.72495 34893 ft 520 kts 62°
2026-05-01 08:37 28.29140 108.79809 34899 ft 520 kts 62°
2026-05-01 08:38 28.32404 108.87127 34894 ft 519 kts 62°
2026-05-01 08:38 28.35661 108.94444 34899 ft 519 kts 62°
2026-05-01 08:39 28.38914 109.01766 34898 ft 519 kts 62°
2026-05-01 08:39 28.42136 109.09032 34908 ft 518 kts 62°
2026-05-01 08:40 28.46996 109.20013 34904 ft 518 kts 62°
2026-05-01 08:40 28.50229 109.27336 34903 ft 518 kts 62°
2026-05-01 08:41 28.53459 109.34668 34913 ft 519 kts 62°
2026-05-01 08:41 28.56667 109.41961 34904 ft 520 kts 62°
2026-05-01 08:42 28.59658 109.49451 34907 ft 520 kts 68°
2026-05-01 08:42 28.62212 109.57162 34911 ft 521 kts 69°
2026-05-01 08:43 28.64803 109.64877 34919 ft 522 kts 68°
2026-05-01 08:43 28.67481 109.72503 34920 ft 523 kts 67°
2026-05-01 08:44 28.70252 109.80167 34916 ft 524 kts 67°
2026-05-01 08:44 28.73018 109.87843 34919 ft 524 kts 67°
2026-05-01 08:45 28.75765 109.95529 34922 ft 524 kts 68°
2026-05-01 08:45 28.78489 110.03185 34930 ft 525 kts 68°
2026-05-01 08:46 28.81229 110.10900 34923 ft 525 kts 67°
2026-05-01 08:46 28.83963 110.18613 34933 ft 524 kts 67°
2026-05-01 08:47 28.86694 110.26336 34917 ft 525 kts 68°
2026-05-01 08:47 28.89397 110.33992 34923 ft 522 kts 67°
2026-05-01 08:48 28.92106 110.41684 34911 ft 523 kts 67°
2026-05-01 08:48 28.94807 110.49369 34912 ft 521 kts 67°
2026-05-01 08:49 28.97492 110.57027 34934 ft 518 kts 68°
2026-05-01 08:49 29.00148 110.64617 34927 ft 517 kts 67°
2026-05-01 08:50 29.02813 110.72245 34924 ft 517 kts 67°
2026-05-01 08:50 29.05499 110.79859 34924 ft 516 kts 67°
2026-05-01 08:51 29.08206 110.87464 34931 ft 517 kts 67°
2026-05-01 08:51 29.10909 110.95087 34935 ft 518 kts 67°
2026-05-01 08:52 29.13591 111.02681 34935 ft 519 kts 67°
2026-05-01 08:52 29.16294 111.10356 34927 ft 521 kts 67°
2026-05-01 08:53 29.18996 111.18046 34931 ft 521 kts 67°
2026-05-01 08:53 29.21697 111.25749 34929 ft 522 kts 67°
2026-05-01 08:54 29.24377 111.33406 34931 ft 522 kts 67°
2026-05-01 08:54 29.27069 111.41119 34930 ft 521 kts 67°
2026-05-01 08:55 29.29756 111.48830 34932 ft 521 kts 67°
2026-05-01 08:55 29.32436 111.56539 34934 ft 521 kts 67°
2026-05-01 08:56 29.35149 111.64225 34936 ft 519 kts 63°
2026-05-01 08:56 29.38796 111.71240 34937 ft 515 kts 53°
2026-05-01 08:57 29.42806 111.78040 34939 ft 514 kts 53°
2026-05-01 08:57 29.46783 111.84863 34938 ft 515 kts 54°
2026-05-01 08:58 29.50712 111.91731 34946 ft 514 kts 54°
2026-05-01 08:58 29.54593 111.98560 34946 ft 514 kts 54°
2026-05-01 08:59 29.58497 112.05437 34947 ft 514 kts 54°
2026-05-01 08:59 29.62397 112.12310 34948 ft 513 kts 54°
2026-05-01 09:00 29.66294 112.19189 34946 ft 513 kts 54°
2026-05-01 09:00 29.70160 112.26027 34954 ft 513 kts 54°
2026-05-01 09:01 29.74049 112.32915 34950 ft 513 kts 54°
2026-05-01 09:01 29.77926 112.39821 34955 ft 514 kts 54°
2026-05-01 09:02 29.81792 112.46736 34951 ft 514 kts 54°
2026-05-01 09:02 29.85629 112.53612 34950 ft 514 kts 54°
2026-05-01 09:03 29.89491 112.60538 34951 ft 514 kts 54°
2026-05-01 09:03 29.93349 112.67470 34956 ft 514 kts 54°
2026-05-01 09:04 29.97204 112.74408 34955 ft 514 kts 54°
2026-05-01 09:04 30.01029 112.81303 34955 ft 514 kts 54°
2026-05-01 09:05 30.04875 112.88250 34952 ft 514 kts 54°
2026-05-01 09:05 30.08720 112.95205 34953 ft 514 kts 54°
2026-05-01 09:06 30.12560 113.02165 34955 ft 514 kts 54°
2026-05-01 09:06 30.16374 113.09089 34958 ft 514 kts 54°
2026-05-01 09:07 30.20212 113.16069 34957 ft 515 kts 54°
2026-05-01 09:07 30.24071 113.23045 34956 ft 515 kts 53°
2026-05-01 09:08 30.27981 113.29988 34957 ft 515 kts 53°
2026-05-01 09:08 30.31869 113.36893 34956 ft 516 kts 53°
2026-05-01 09:09 30.35770 113.43859 34957 ft 516 kts 53°
2026-05-01 09:09 30.39668 113.50841 34959 ft 516 kts 53°
2026-05-01 09:10 30.43562 113.57829 34953 ft 516 kts 53°
2026-05-01 09:10 30.47455 113.64826 34953 ft 516 kts 53°
2026-05-01 09:11 30.51317 113.71778 34961 ft 516 kts 53°
2026-05-01 09:11 30.55200 113.78782 34962 ft 516 kts 53°
2026-05-01 09:12 30.59080 113.85787 34957 ft 516 kts 53°
2026-05-01 09:12 30.62965 113.92790 34964 ft 515 kts 53°
2026-05-01 09:13 30.66818 113.99736 34960 ft 515 kts 53°
2026-05-01 09:13 30.70694 114.06724 34958 ft 514 kts 53°
2026-05-01 09:14 30.74563 114.13712 34962 ft 514 kts 53°
2026-05-01 09:14 30.78343 114.20765 34954 ft 516 kts 59°
2026-05-01 09:15 30.81008 114.28496 34964 ft 520 kts 67°
2026-05-01 09:15 30.83480 114.36392 34957 ft 519 kts 66°
2026-05-01 09:16 30.86007 114.44260 34967 ft 519 kts 66°
2026-05-01 09:17 30.89801 114.55991 34982 ft 518 kts 66°
2026-05-01 09:17 30.93612 114.67775 34987 ft 518 kts 66°
2026-05-01 09:18 30.97403 114.79562 34989 ft 518 kts 66°
2026-05-01 09:19 31.01163 114.91291 34987 ft 517 kts 66°
2026-05-01 09:20 31.04949 115.03064 34992 ft 517 kts 66°
2026-05-01 09:21 31.09979 115.18706 35002 ft 516 kts 66°
2026-05-01 09:21 31.13698 115.30515 34985 ft 517 kts 66°
2026-05-01 09:22 31.18763 115.46164 35024 ft 515 kts 65°
2026-05-01 09:23 31.22541 115.57884 35015 ft 517 kts 65°
2026-05-01 09:24 31.26326 115.69709 35022 ft 519 kts 65°
2026-05-01 09:25 31.31351 115.85438 35014 ft 518 kts 65°
2026-05-01 09:26 31.35169 115.97246 35003 ft 517 kts 65°
2026-05-01 09:26 31.39000 116.08969 35015 ft 516 kts 65°
2026-05-01 09:27 31.42823 116.20751 35015 ft 516 kts 65°
2026-05-01 09:28 31.45361 116.28607 35005 ft 516 kts 65°
2026-05-01 09:28 31.47892 116.36460 35009 ft 515 kts 65°
2026-05-01 09:29 31.51658 116.48179 35010 ft 514 kts 65°
2026-05-01 09:30 31.55425 116.59941 35021 ft 513 kts 65°
2026-05-01 09:30 31.59159 116.71644 35019 ft 513 kts 65°
2026-05-01 09:31 31.61652 116.79481 35028 ft 513 kts 65°
2026-05-01 09:32 31.65378 116.91235 35028 ft 512 kts 65°
2026-05-01 09:32 31.69076 117.02945 35030 ft 512 kts 65°
2026-05-01 09:33 31.71515 117.10805 35030 ft 512 kts 66°
2026-05-01 09:34 31.75159 117.22605 35038 ft 512 kts 66°
2026-05-01 09:34 31.77777 117.34740 35036 ft 520 kts 85°
2026-05-01 09:35 31.77951 117.47505 35041 ft 521 kts 87°
2026-05-01 09:36 31.78101 117.56018 35046 ft 521 kts 86°
2026-05-01 09:36 31.78303 117.64527 35051 ft 521 kts 86°
2026-05-01 09:37 31.78486 117.72979 35046 ft 521 kts 86°
2026-05-01 09:37 31.78712 117.85750 35051 ft 521 kts 87°
2026-05-01 09:38 31.78931 117.98517 35050 ft 521 kts 87°
2026-05-01 09:39 31.79143 118.11224 35056 ft 521 kts 86°
2026-05-01 09:39 31.79309 118.19732 35051 ft 521 kts 86°
2026-05-01 09:40 31.80451 118.32274 35061 ft 514 kts 70°
2026-05-01 09:41 31.83172 118.39938 35064 ft 507 kts 59°
2026-05-01 09:41 31.87671 118.51215 35062 ft 509 kts 61°
2026-05-01 09:42 31.91023 118.58443 35054 ft 494 kts 41°
2026-05-01 09:42 31.96455 118.62739 35073 ft 464 kts 12°
2026-05-01 09:43 32.02650 118.63880 35055 ft 442 kts 349°
2026-05-01 09:43 32.08643 118.62679 35065 ft 437 kts 342°
2026-05-01 09:44 32.17571 118.60554 35062 ft 440 kts 342°
2026-05-01 09:45 32.23598 118.59191 35059 ft 442 kts 343°
2026-05-01 09:45 32.32674 118.57172 35058 ft 443 kts 343°
2026-05-01 09:46 32.38732 118.55820 35062 ft 443 kts 342°
2026-05-01 09:46 32.44745 118.54476 35059 ft 443 kts 342°
2026-05-01 09:47 32.50929 118.53804 35064 ft 454 kts 355°
2026-05-01 09:47 32.57245 118.55086 35066 ft 465 kts
2026-05-01 09:48 32.63535 118.56919 35047 ft 471 kts 13°
2026-05-01 09:48 32.66491 118.58716 35068 ft 486 kts 29°
2026-05-01 09:48 32.68995 118.61403 35043 ft 501 kts 45°
2026-05-01 09:49 32.70893 118.64918 35086 ft 509 kts 56°
2026-05-01 09:49 32.72560 118.68639 35058 ft 511 kts 57°
2026-05-01 09:49 32.75836 118.76123 35061 ft 511 kts 57°
2026-05-01 09:50 32.79208 118.83542 35061 ft 510 kts 56°
2026-05-01 09:50 32.82624 118.90921 35064 ft 510 kts 56°
2026-05-01 09:51 32.84335 118.94626 35165 ft 512 kts 56°
2026-05-01 09:51 32.86022 118.98295 35395 ft 511 kts 56°
2026-05-01 09:51 32.87725 119.02000 35684 ft 509 kts 56°
2026-05-01 09:51 32.89420 119.05686 35989 ft 507 kts 56°
2026-05-01 09:52 32.91107 119.09359 36293 ft 505 kts 56°
2026-05-01 09:52 32.92788 119.13019 36568 ft 503 kts 56°
2026-05-01 09:52 32.94465 119.16672 36784 ft 503 kts 55°
2026-05-01 09:52 32.96152 119.20316 36990 ft 502 kts 55°
2026-05-01 09:53 32.99541 119.27556 37066 ft 505 kts 55°
2026-05-01 09:53 33.02950 119.34848 37067 ft 502 kts 55°
2026-05-01 09:54 33.06328 119.42107 37068 ft 500 kts 55°
2026-05-01 09:54 33.09687 119.49344 37070 ft 498 kts 55°
2026-05-01 09:55 33.13007 119.56514 37071 ft 497 kts 55°
2026-05-01 09:55 33.16347 119.63739 37076 ft 497 kts 55°
2026-05-01 09:56 33.19688 119.70980 37078 ft 499 kts 55°
2026-05-01 09:56 33.23035 119.78251 37079 ft 500 kts 55°
2026-05-01 09:57 33.26367 119.85502 37078 ft 502 kts 55°
2026-05-01 09:57 33.29732 119.92842 37081 ft 504 kts 55°
2026-05-01 09:58 33.33101 120.00208 37083 ft 506 kts 55°
2026-05-01 09:58 33.36474 120.07599 37082 ft 507 kts 55°
2026-05-01 09:59 33.39825 120.14953 37081 ft 507 kts 55°
2026-05-01 09:59 33.42867 120.22591 37067 ft 515 kts 68°
2026-05-01 10:00 33.44667 120.30919 37079 ft 517 kts 72°
2026-05-01 10:00 33.46303 120.39291 37078 ft 515 kts 72°
2026-05-01 10:01 33.47968 120.47563 37075 ft 514 kts 72°
2026-05-01 10:01 33.49680 120.55854 37087 ft 512 kts 71°
2026-05-01 10:02 33.51396 120.64126 37091 ft 511 kts 72°
2026-05-01 10:02 33.53089 120.72333 37093 ft 510 kts 72°
2026-05-01 10:03 33.54783 120.80592 37098 ft 510 kts 72°
2026-05-01 10:03 33.56470 120.88852 37097 ft 510 kts 72°
2026-05-01 10:04 33.58152 120.97116 37105 ft 510 kts 72°
2026-05-01 10:04 33.59817 121.05325 37094 ft 510 kts 72°
2026-05-01 10:05 33.61490 121.13606 37103 ft 511 kts 72°
2026-05-01 10:05 33.63159 121.21898 37098 ft 512 kts 72°
2026-05-01 10:06 33.64826 121.30210 37108 ft 513 kts 73°
2026-05-01 10:06 33.66479 121.38478 37099 ft 513 kts 73°
2026-05-01 10:07 33.68155 121.46814 37110 ft 514 kts 72°
2026-05-01 10:07 33.69852 121.55152 37102 ft 514 kts 72°
2026-05-01 10:08 33.72393 121.67684 37106 ft 515 kts 72°
2026-05-01 10:09 33.74146 121.75962 37121 ft 515 kts 72°
2026-05-01 10:09 33.75911 121.84303 37109 ft 515 kts 72°
2026-05-01 10:10 33.77658 121.92643 37119 ft 515 kts 72°
2026-05-01 10:10 33.80275 122.05149 37113 ft 514 kts 72°
2026-05-01 10:11 33.81998 122.13426 37120 ft 513 kts 72°
2026-05-01 10:11 33.83724 122.21745 37111 ft 512 kts 72°
2026-05-01 10:12 33.85152 122.28655 37121 ft 512 kts 72°
2026-05-01 10:13 33.88005 122.42516 37126 ft 511 kts 72°
2026-05-01 10:13 33.89692 122.50756 37116 ft 511 kts 72°
2026-05-01 10:14 33.92230 122.63206 37126 ft 511 kts 72°
2026-05-01 10:14 33.93917 122.71517 37117 ft 511 kts 72°
2026-05-01 10:15 33.95589 122.79785 37126 ft 512 kts 72°
2026-05-01 10:15 33.97270 122.88133 37121 ft 513 kts 72°
2026-05-01 10:16 33.98950 122.96503 37124 ft 515 kts 72°
2026-05-01 10:17 34.01469 123.09120 37132 ft 517 kts 72°
2026-05-01 10:17 34.03976 123.21747 37123 ft 520 kts 72°
2026-05-01 10:18 34.06496 123.34494 37122 ft 522 kts 71°
2026-05-01 10:18 34.07789 123.38524 37109 ft 510 kts 53°
2026-05-01 10:19 34.09873 123.41885 37130 ft 494 kts 37°
2026-05-01 10:19 34.12498 123.44445 37133 ft 478 kts 22°
2026-05-01 10:19 34.15395 123.46165 37127 ft 465 kts 11°
2026-05-01 10:20 34.21547 123.47440 37121 ft 438 kts 349°
2026-05-01 10:20 34.24582 123.47211 37120 ft 437 kts 347°
2026-05-01 10:20 34.30647 123.46592 37113 ft 438 kts 347°
2026-05-01 10:21 34.39765 123.45725 37116 ft 442 kts 348°
2026-05-01 10:22 34.48979 123.44934 37115 ft 443 kts 348°
2026-05-01 10:23 34.58213 123.44147 37119 ft 444 kts 348°
2026-05-01 10:23 34.67408 123.43358 37105 ft 443 kts 348°
2026-05-01 10:24 34.79711 123.42298 37102 ft 443 kts 348°
2026-05-01 10:25 34.91941 123.41218 37099 ft 441 kts 348°
2026-05-01 10:26 34.98065 123.40672 37103 ft 441 kts 348°
2026-05-01 10:27 35.10388 123.40214 37102 ft 444 kts 352°
2026-05-01 10:28 35.19600 123.39979 37101 ft 443 kts 351°
2026-05-01 10:28 35.28853 123.39721 37091 ft 443 kts 351°
2026-05-01 10:29 35.38108 123.39466 37085 ft 444 kts 351°
2026-05-01 10:30 35.50420 123.39128 37087 ft 444 kts 351°
2026-05-01 10:31 35.62806 123.38785 37087 ft 446 kts 352°
2026-05-01 10:32 35.72073 123.38528 37080 ft 447 kts 352°
2026-05-01 10:33 35.84517 123.38183 37075 ft 448 kts 352°
2026-05-01 10:33 35.90743 123.38008 36631 ft 443 kts 349°
2026-05-01 10:34 35.93710 123.37912 36826 ft 423 kts 347°
2026-05-01 10:34 35.99497 123.37748 36979 ft 414 kts 348°
2026-05-01 10:35 36.08172 123.37523 37063 ft 418 kts 348°
2026-05-01 10:35 36.14011 123.37358 37086 ft 421 kts 348°
2026-05-01 10:36 36.19822 123.37199 37594 ft 418 kts 348°
2026-05-01 10:36 36.22714 123.37121 37941 ft 414 kts 347°
2026-05-01 10:36 36.25592 123.37042 38220 ft 413 kts 347°
2026-05-01 10:37 36.28462 123.36959 38385 ft 413 kts 347°
2026-05-01 10:37 36.34215 123.36794 38731 ft 413 kts 347°
2026-05-01 10:37 36.37090 123.36758 38909 ft 417 kts 352°
2026-05-01 10:38 36.39988 123.37282 38947 ft 436 kts
2026-05-01 10:38 36.42923 123.38439 38946 ft 451 kts 11°
2026-05-01 10:38 36.45754 123.40261 38945 ft 466 kts 21°
2026-05-01 10:38 36.48459 123.42505 38955 ft 468 kts 22°
2026-05-01 10:39 36.53783 123.47154 38949 ft 466 kts 22°
2026-05-01 10:39 36.59103 123.51712 38943 ft 463 kts 22°
2026-05-01 10:40 36.64423 123.56186 38949 ft 461 kts 21°
2026-05-01 10:40 36.69699 123.60623 38952 ft 460 kts 21°
2026-05-01 10:41 36.75022 123.65054 38956 ft 460 kts 21°
2026-05-01 10:42 36.83030 123.71717 38958 ft 462 kts 21°
2026-05-01 10:42 36.88390 123.76196 38952 ft 464 kts 20°
2026-05-01 10:43 36.93731 123.80669 38943 ft 466 kts 20°
2026-05-01 10:43 36.99129 123.85198 38879 ft 469 kts 20°
2026-05-01 10:43 37.01848 123.87481 38734 ft 471 kts 20°
2026-05-01 10:44 37.04564 123.89767 38595 ft 470 kts 20°
2026-05-01 10:44 37.07273 123.92051 38439 ft 469 kts 20°
2026-05-01 10:44 37.09980 123.94330 38282 ft 469 kts 20°
2026-05-01 10:44 37.12677 123.96641 38115 ft 475 kts 25°
2026-05-01 10:45 37.15017 123.99670 37907 ft 509 kts 45°
2026-05-01 10:45 37.16658 124.03718 37762 ft 535 kts 64°
2026-05-01 10:45 37.17342 124.08383 37632 ft 552 kts 81°
2026-05-01 10:45 37.17447 124.13208 37521 ft 555 kts 85°
2026-05-01 10:46 37.17432 124.18053 37359 ft 556 kts 85°
2026-05-01 10:46 37.17507 124.22902 37201 ft 556 kts 83°
2026-05-01 10:46 37.17666 124.27749 37054 ft 557 kts 82°
2026-05-01 10:46 37.17805 124.32608 36904 ft 559 kts 83°
2026-05-01 10:47 37.17917 124.37418 36755 ft 560 kts 83°
2026-05-01 10:47 37.18023 124.42305 36579 ft 562 kts 83°
2026-05-01 10:47 37.18130 124.47215 36331 ft 565 kts 83°
2026-05-01 10:47 37.18242 124.52151 36101 ft 567 kts 83°
2026-05-01 10:48 37.18353 124.57096 35851 ft 568 kts 83°
2026-05-01 10:48 37.18462 124.62044 35612 ft 568 kts 83°
2026-05-01 10:48 37.18568 124.66989 35374 ft 567 kts 83°
2026-05-01 10:48 37.18671 124.71923 35113 ft 566 kts 83°
2026-05-01 10:49 37.18773 124.76861 34758 ft 567 kts 83°
2026-05-01 10:49 37.18872 124.81734 34417 ft 567 kts 84°
2026-05-01 10:49 37.18971 124.86668 34077 ft 566 kts 84°
2026-05-01 10:49 37.19070 124.91595 33705 ft 565 kts 84°
2026-05-01 10:50 37.19169 124.96508 33314 ft 563 kts 84°
2026-05-01 10:50 37.19267 125.01404 32931 ft 561 kts 84°
2026-05-01 10:50 37.19361 125.06281 32551 ft 558 kts 84°
2026-05-01 10:50 37.19453 125.11139 32174 ft 556 kts 84°
2026-05-01 10:51 37.19543 125.15971 31814 ft 553 kts 84°
2026-05-01 10:51 37.19630 125.20777 31451 ft 550 kts 84°
2026-05-01 10:51 37.19714 125.25491 31100 ft 547 kts 84°
2026-05-01 10:51 37.19796 125.30250 30740 ft 545 kts 84°
2026-05-01 10:52 37.19877 125.34991 30391 ft 543 kts 84°
2026-05-01 10:52 37.19956 125.39721 30050 ft 541 kts 84°
2026-05-01 10:52 37.20033 125.44431 29657 ft 540 kts 84°
2026-05-01 10:52 37.20107 125.49136 29246 ft 539 kts 84°
2026-05-01 10:53 37.20176 125.53837 28850 ft 539 kts 84°
2026-05-01 10:53 37.20238 125.58531 28457 ft 538 kts 84°
2026-05-01 10:53 37.20297 125.63222 28074 ft 538 kts 84°
2026-05-01 10:53 37.20355 125.67908 27691 ft 537 kts 84°
2026-05-01 10:54 37.20412 125.72587 27310 ft 536 kts 84°
2026-05-01 10:54 37.20468 125.77202 26944 ft 536 kts 84°
2026-05-01 10:54 37.20522 125.81869 26572 ft 535 kts 84°
2026-05-01 10:54 37.20574 125.86522 26206 ft 533 kts 84°
2026-05-01 10:55 37.20625 125.91171 25843 ft 532 kts 84°
2026-05-01 10:55 37.20674 125.95809 25493 ft 531 kts 84°
2026-05-01 10:55 37.20721 126.00426 25140 ft 529 kts 84°
2026-05-01 10:55 37.20766 126.05028 24793 ft 526 kts 84°
2026-05-01 10:56 37.20808 126.09601 24446 ft 522 kts 84°
2026-05-01 10:56 37.20849 126.14133 24104 ft 518 kts 84°
2026-05-01 10:56 37.20887 126.18564 23726 ft 513 kts 84°
2026-05-01 10:56 37.20925 126.23018 23091 ft 506 kts 84°
2026-05-01 10:57 37.20958 126.27387 22421 ft 495 kts 84°
2026-05-01 10:57 37.20989 126.31662 21775 ft 485 kts 84°
2026-05-01 10:57 37.21020 126.35863 21140 ft 478 kts 84°
2026-05-01 10:57 37.21052 126.40006 20517 ft 472 kts 85°
2026-05-01 10:58 37.21080 126.44092 19909 ft 466 kts 85°
2026-05-01 10:58 37.21106 126.48128 19310 ft 460 kts 85°
2026-05-01 10:58 37.21131 126.52120 18723 ft 455 kts 85°
2026-05-01 10:58 37.21156 126.56066 18142 ft 450 kts 85°
2026-05-01 10:59 37.21179 126.59922 17486 ft 445 kts 85°
2026-05-01 10:59 37.21202 126.63785 16835 ft 441 kts 85°
2026-05-01 10:59 37.21223 126.67610 16195 ft 437 kts 85°
2026-05-01 10:59 37.21244 126.71399 15574 ft 432 kts 85°
2026-05-01 11:00 37.21262 126.75146 15111 ft 427 kts 85°
2026-05-01 11:00 37.21269 126.78866 14983 ft 427 kts 88°
2026-05-01 11:00 37.20857 126.82565 14908 ft 431 kts 102°
2026-05-01 11:00 37.19785 126.86093 14901 ft 437 kts 115°
2026-05-01 11:01 37.18113 126.89298 14903 ft 441 kts 126°
2026-05-01 11:01 37.16226 126.92268 14900 ft 442 kts 127°
2026-05-01 11:01 37.14301 126.95270 14609 ft 440 kts 126°
2026-05-01 11:01 37.12496 126.98285 13799 ft 427 kts 118°
2026-05-01 11:02 37.11322 127.01622 12913 ft 412 kts 104°
2026-05-01 11:02 37.10516 127.04978 12351 ft 393 kts 102°
2026-05-01 11:02 37.09797 127.08203 11915 ft 375 kts 101°
2026-05-01 11:02 37.09119 127.11274 11553 ft 358 kts 101°
2026-05-01 11:03 37.08466 127.14238 11086 ft 348 kts 101°
2026-05-01 11:03 37.07801 127.17089 10809 ft 334 kts 103°
2026-05-01 11:03 37.07123 127.19757 10553 ft 320 kts 103°
2026-05-01 11:03 37.06450 127.22368 10232 ft 310 kts 103°
2026-05-01 11:04 37.05803 127.24886 10010 ft 298 kts 103°
2026-05-01 11:04 37.05181 127.27327 9725 ft 291 kts 103°
2026-05-01 11:04 37.04579 127.29703 9449 ft 282 kts 103°
2026-05-01 11:04 37.03997 127.32010 9202 ft 273 kts 103°
2026-05-01 11:05 37.03431 127.34260 8966 ft 271 kts 103°
2026-05-01 11:05 37.02862 127.36534 8692 ft 278 kts 103°
2026-05-01 11:05 37.02273 127.38888 8435 ft 289 kts 103°
2026-05-01 11:05 37.01673 127.41278 8182 ft 293 kts 104°
2026-05-01 11:06 37.01062 127.43702 7919 ft 292 kts 104°
2026-05-01 11:06 37.00453 127.46112 7642 ft 290 kts 104°
2026-05-01 11:06 36.99849 127.48505 7378 ft 288 kts 104°
2026-05-01 11:07 36.98649 127.53253 6832 ft 285 kts 104°
2026-05-01 11:07 36.98052 127.55612 6550 ft 284 kts 105°
2026-05-01 11:07 36.97456 127.57966 6267 ft 283 kts 105°
2026-05-01 11:07 36.96872 127.60264 6111 ft 277 kts 105°
2026-05-01 11:08 36.96105 127.62441 5921 ft 275 kts 126°
2026-05-01 11:08 36.94717 127.64074 5625 ft 276 kts 144°
2026-05-01 11:08 36.91645 127.66958 5008 ft 277 kts 144°
2026-05-01 11:09 36.90109 127.68413 4680 ft 277 kts 144°
2026-05-01 11:09 36.88558 127.69844 4386 ft 277 kts 151°
2026-05-01 11:09 36.86756 127.70561 4036 ft 269 kts 182°
2026-05-01 11:10 36.83652 127.68845 3509 ft 243 kts 230°
2026-05-01 11:10 36.82558 127.67299 3248 ft 231 kts 237°
2026-05-01 11:10 36.81612 127.65773 2961 ft 214 kts 238°
2026-05-01 11:10 36.80741 127.64361 2702 ft 197 kts 238°
2026-05-01 11:11 36.79938 127.63073 2472 ft 180 kts 238°
2026-05-01 11:11 36.79202 127.61887 2263 ft 166 kts 238°
2026-05-01 11:11 36.78520 127.60794 2154 ft 154 kts 239°
2026-05-01 11:11 36.77887 127.59772 1991 ft 145 kts 238°
2026-05-01 11:12 36.77279 127.58785 1784 ft 144 kts 237°
2026-05-01 11:12 36.76669 127.57806 1603 ft 143 kts 236°
2026-05-01 11:12 36.76056 127.56821 1401 ft 142 kts 236°
2026-05-01 11:12 36.75457 127.55856 1217 ft 139 kts 235°
2026-05-01 11:13 36.74858 127.54891 1029 ft 143 kts 234°
2026-05-01 11:13 36.74245 127.53903 852 ft 144 kts 234°
2026-05-01 11:13 36.73638 127.52927 644 ft 141 kts 233°
2026-05-01 11:13 36.73046 127.51977 409 ft 136 kts 233°
2026-05-01 11:14 36.72483 127.51086 199 ft 131 kts 232°
2026-05-01 11:14 36.71949 127.50237 184 ft 107 kts 232°
2026-05-01 11:14 36.71614 127.49698 180 ft 61 kts 231°
2026-05-01 11:14 36.71454 127.49434 180 ft 17 kts 251°
2026-05-01 11:15 36.71512 127.49322 182 ft 12 kts 324°
2026-05-01 11:15 36.71582 127.49348 183 ft 12 kts 49°
2026-05-01 11:15 36.71640 127.49438 198 ft 17 kts 51°
2026-05-01 11:15 36.71731 127.49585 188 ft 26 kts 52°
2026-05-01 11:16 36.71860 127.49773 197 ft 28 kts 28°
2026-05-01 11:16 36.72003 127.49706 188 ft 17 kts 344°
2026-05-01 11:16 36.72074 127.49777 190 ft 9 kts 53°
2026-05-01 11:16 36.72085 127.49795 189 ft 1 kts 53°
2026-05-01 11:17 36.72111 127.49819 192 ft 8 kts
2026-05-01 11:17 36.72160 127.49784 188 ft 7 kts 321°
2026-05-01 11:17 36.72169 127.49776 188 ft 0 kts 321°